Chamberlain, SD

3:51 AM CDT on July 25, 2017 (GMT -0500)
Chamberlain

Weather History for K9V9 - October, 2012

Change the Weather History Date:

Sunday, October 14, 2012

  Actual Average Record
Temperature  
Mean Temperature 59 °F -  
Max Temperature 73 °F 61 °F 83 °F (2016)
Min Temperature 45 °F 36 °F 23 °F (2006)
Degree Days  
Heating Degree Days 6    
Growing Degree Days 9 (Base 50)    
Moisture  
Dew Point 35 °F    
Average Humidity 47    
Maximum Humidity 68    
Minimum Humidity 26    
Precipitation  
Precipitation 0.00 in - - ()
Sea Level Pressure  
Sea Level Pressure 29.94 in    
Wind  
Wind Speed 9 mph (NNW)    
Max Wind Speed 13 mph    
Max Gust Speed -    
Averages and records for this station are not official NWS values.
T = Trace of Precipitation, MM = Missing Value Source: NWS Daily Summary

Daily Weather History Graph

Daily Weather History Graph

Search for Another Location

Airport or City:

Trip Planner

Search our weather history database for the weather conditions in past years. The results will help you decide how hot, cold, wet, or windy it might be!

Date:

Astronomy

Oct. 14, 2012 Rise Set
Actual Time 7:51 AM CDT 6:54 PM CDT
Civil Twilight 7:22 AM CDT 7:23 PM CDT
Nautical Twilight 6:48 AM CDT 7:56 PM CDT
Astronomical Twilight 6:15 AM CDT 8:29 PM CDT
Moon 6:51 AM CDT (10/14) 6:14 PM CDT (10/14)
Length of Visible Light 12h 01m
Length of Day
11h 03m
Waning Crescent, 1% of the Moon is Illuminated
Oct 14
Waning Crescent
Oct 15
New
Oct 21
First Quarter
Oct 29
Full
Nov 6
Last Quarter

Hourly Weather History & Observations

Time (CDT) Temp. Windchill Dew Point Humidity Pressure Visibility Wind Dir Wind Speed Gust Speed Precip Events Conditions
12:52 AM 54.0 °F - 36.0 °F 51% 29.86 in - North 10.4 mph - N/A   Unknown
1:52 AM 54.0 °F - 35.1 °F 49% 29.88 in - NNW 12.7 mph - N/A   Unknown
2:52 AM 54.0 °F - 35.1 °F 49% 29.90 in - NNW 11.5 mph - N/A   Unknown
3:52 AM 50.0 °F - 35.1 °F 57% 29.91 in - NW 9.2 mph - N/A   Unknown
4:52 AM 48.0 °F - 34.0 °F 58% 29.91 in - NW 12.7 mph - N/A   Unknown
5:52 AM 48.0 °F - 35.1 °F 61% 29.94 in - NW 11.5 mph - N/A   Unknown
6:52 AM 46.0 °F 41.9 °F 35.1 °F 66% 29.96 in - NNW 8.1 mph - N/A   Unknown
7:52 AM 45.0 °F 40.6 °F 35.1 °F 68% 29.96 in - NNW 8.1 mph - N/A   Unknown
8:52 AM 46.9 °F - 36.0 °F 66% 29.98 in - NW 8.1 mph - N/A   Unknown
9:52 AM 52.0 °F - 36.0 °F 54% 29.98 in - NNW 12.7 mph - N/A   Unknown
10:52 AM 57.0 °F - 36.0 °F 45% 29.98 in - NNW 11.5 mph - N/A   Unknown
11:52 AM 62.1 °F - 37.0 °F 39% 29.98 in - North 10.4 mph - N/A   Unknown
12:52 PM 64.0 °F - 35.1 °F 34% 29.97 in - NNW 6.9 mph - N/A   Unknown
1:52 PM 66.9 °F - 35.1 °F 31% 29.96 in - NNW 8.1 mph - N/A   Unknown
2:52 PM 69.1 °F - 35.1 °F 29% 29.93 in - North 6.9 mph - N/A   Unknown
3:52 PM 73.0 °F - 36.0 °F 26% 29.91 in - Variable 4.6 mph - N/A   Unknown
4:52 PM 72.0 °F - 36.0 °F 27% 29.91 in - Variable 5.8 mph - N/A   Unknown
5:52 PM 71.1 °F - 36.0 °F 28% 29.92 in - NNW 6.9 mph - N/A   Unknown
6:52 PM 64.0 °F - 37.9 °F 38% 29.93 in - NNE 4.6 mph - N/A   Unknown
7:52 PM 59.0 °F - 36.0 °F 42% 29.95 in - East 6.9 mph - N/A   Unknown
8:52 PM 53.1 °F - 34.0 °F 48% 29.96 in - SE 9.2 mph - N/A   Unknown
9:52 PM 51.1 °F - 34.0 °F 52% 29.96 in - SE 4.6 mph - N/A   Unknown
10:52 PM 51.1 °F - 33.1 °F 50% 29.95 in - SE 4.6 mph - N/A   Unknown
11:52 PM 46.9 °F - 33.1 °F 59% 29.95 in - South 3.5 mph - N/A   Unknown